When you browse on this site, cookies collect data to enhance your experience and personalize the content and advertising you see.
Visit our Privacy Policy to learn more. By continuing to use the site, you agree to this use of cookies and data.
  • In Deutschland
  • Länderverzeichnis
  • Für 7 Tage
  • Wassertemperatur
  • Wetterkarte
  • Widgets
  • user-avatar
    Anmelden

    Stündliche Wetter Mayrhofen

    Heute, 9 Dezember, Montag

    Zeit Temperatur Niederschläge Wind Luftdruck Luftfeuchtigkeit
    00:00 -5°C° 0 mm 2 m/S 610 mmHg 74%
    01:00 -5°C° 0 mm 2 m/S 610 mmHg 71%
    02:00 -5°C° 0 mm 2 m/S 609 mmHg 71%
    03:00 -5°C° 0 mm 2 m/S 609 mmHg 71%
    04:00 -2°C° 0 mm 1 m/S 609 mmHg 71%
    05:00 -3°C° 0.1 mm 1 m/S 609 mmHg 74%
    06:00 -3°C° 0.1 mm 1 m/S 608 mmHg 77%
    07:00 -3°C° 0.1 mm 1 m/S 608 mmHg 80%
    08:00 -3°C° 0.2 mm 1 m/S 608 mmHg 83%
    09:00 -2°C° 0.2 mm 1 m/S 608 mmHg 85%
    10:00 -2°C° 0.2 mm 1 m/S 608 mmHg 88%
    11:00 -1°C° 0.2 mm 1 m/S 608 mmHg 87%
    12:00 -1°C° 0.2 mm 1 m/S 608 mmHg 86%
    13:00 0°C° 0.2 mm 1 m/S 608 mmHg 85%
    14:00 -1°C° 0 mm 1 m/S 607 mmHg 87%
    15:00 -3°C° 0 mm 0 m/S 607 mmHg 89%
    16:00 -4°C° 0 mm 0 m/S 606 mmHg 91%
    17:00 -3°C° 0.1 mm 1 m/S 607 mmHg 89%
    18:00 -4°C° 0.1 mm 1 m/S 607 mmHg 87%
    19:00 -4°C° 0.1 mm 1 m/S 607 mmHg 85%
    20:00 -4°C° 0.1 mm 1 m/S 608 mmHg 86%
    21:00 -6°C° 0.1 mm 2 m/S 608 mmHg 88%
    22:00 -6°C° 0.1 mm 2 m/S 609 mmHg 89%
    23:00 -6°C° 0.4 mm 2 m/S 609 mmHg 91%

    Morgen, 10 Dezember, Dienstag

    Zeit Temperatur Niederschläge Wind Luftdruck Luftfeuchtigkeit
    00:00 -6°C° 0.4 mm 2 m/S 610 mmHg 92%
    01:00 -6°C° 0.4 mm 2 m/S 610 mmHg 94%
    02:00 -6°C° 0.5 mm 2 m/S 611 mmHg 95%
    03:00 -6°C° 0.5 mm 2 m/S 611 mmHg 95%
    04:00 -7°C° 0.5 mm 3 m/S 612 mmHg 95%
    05:00 -7°C° 0.8 mm 3 m/S 613 mmHg 95%
    06:00 -7°C° 0.8 mm 3 m/S 614 mmHg 95%
    07:00 -7°C° 0.8 mm 3 m/S 615 mmHg 95%
    08:00 -8°C° 0.4 mm 3 m/S 615 mmHg 93%
    09:00 -8°C° 0.4 mm 3 m/S 616 mmHg 91%
    10:00 -8°C° 0.4 mm 3 m/S 617 mmHg 90%
    11:00 -8°C° 0.1 mm 3 m/S 617 mmHg 87%
    12:00 -8°C° 0.1 mm 3 m/S 617 mmHg 84%
    13:00 -6°C° 0.1 mm 2 m/S 617 mmHg 81%
    14:00 -8°C° 0 mm 2 m/S 616 mmHg 84%
    15:00 -9°C° 0 mm 2 m/S 616 mmHg 87%
    16:00 -10°C° 0 mm 2 m/S 615 mmHg 90%
    17:00 -12°C° 0 mm 2 m/S 615 mmHg 82%
    18:00 -12°C° 0 mm 2 m/S 615 mmHg 73%
    19:00 -13°C° 0 mm 2 m/S 615 mmHg 64%
    20:00 -13°C° 0 mm 2 m/S 615 mmHg 56%
    21:00 -12°C° 0 mm 2 m/S 615 mmHg 48%
    22:00 -12°C° 0 mm 2 m/S 615 mmHg 40%
    23:00 -10°C° 0 mm 2 m/S 615 mmHg 37%

    übermorgen, 11 Dezember, Mittwoch

    Zeit Temperatur Niederschläge Wind Luftdruck Luftfeuchtigkeit
    00:00 -9°C° 0 mm 2 m/S 615 mmHg 34%
    01:00 -8°C° 0 mm 1 m/S 615 mmHg 31%
    02:00 -7°C° 0 mm 1 m/S 614 mmHg 30%
    03:00 -7°C° 0 mm 1 m/S 614 mmHg 29%
    04:00 -6°C° 0 mm 1 m/S 613 mmHg 28%
    05:00 -6°C° 0 mm 1 m/S 613 mmHg 28%
    06:00 -6°C° 0 mm 1 m/S 613 mmHg 27%
    07:00 -4°C° 0 mm 1 m/S 613 mmHg 27%
    08:00 -3°C° 0 mm 1 m/S 613 mmHg 32%
    09:00 -1°C° 0 mm 1 m/S 613 mmHg 37%
    10:00 +1°C° 0 mm 1 m/S 614 mmHg 41%
    11:00 +1°C° 0 mm 1 m/S 613 mmHg 48%
    12:00 +2°C° 0 mm 1 m/S 613 mmHg 54%
    13:00 +3°C° 0 mm 1 m/S 612 mmHg 60%
    14:00 +1°C° 0 mm 1 m/S 611 mmHg 56%
    15:00 0°C° 0 mm 1 m/S 610 mmHg 52%
    16:00 -2°C° 0 mm 1 m/S 609 mmHg 48%
    17:00 -2°C° 0 mm 1 m/S 609 mmHg 47%
    18:00 -3°C° 0 mm 1 m/S 609 mmHg 45%
    19:00 -3°C° 0 mm 1 m/S 609 mmHg 44%
    20:00 -4°C° 0 mm 1 m/S 609 mmHg 51%
    21:00 -4°C° 0 mm 1 m/S 609 mmHg 57%
    22:00 -4°C° 0 mm 1 m/S 609 mmHg 64%
    23:00 -4°C° 0.4 mm 1 m/S 608 mmHg 73%

    12 Dezember, Donnerstag

    Zeit Temperatur Niederschläge Wind Luftdruck Luftfeuchtigkeit
    00:00 -6°C° 0.4 mm 1 m/S 608 mmHg 82%
    01:00 -6°C° 0.4 mm 1 m/S 608 mmHg 91%
    02:00 -4°C° 1.2 mm 1 m/S 608 mmHg 92%
    03:00 -4°C° 1.2 mm 1 m/S 608 mmHg 94%
    04:00 -6°C° 1.2 mm 2 m/S 607 mmHg 96%
    05:00 -7°C° 0.7 mm 2 m/S 608 mmHg 95%
    06:00 -7°C° 0.7 mm 2 m/S 608 mmHg 94%
    07:00 -7°C° 0.7 mm 2 m/S 608 mmHg 94%
    08:00 -7°C° 0.4 mm 2 m/S 608 mmHg 90%
    09:00 -7°C° 0.4 mm 2 m/S 609 mmHg 86%
    10:00 -7°C° 0.4 mm 2 m/S 609 mmHg 82%
    11:00 -6°C° 0 mm 1 m/S 609 mmHg 79%
    12:00 -4°C° 0 mm 1 m/S 609 mmHg 75%
    13:00 -4°C° 0 mm 1 m/S 609 mmHg 72%
    14:00 -6°C° 0 mm 1 m/S 608 mmHg 75%
    15:00 -8°C° 0 mm 0 m/S 607 mmHg 79%
    16:00 -9°C° 0 mm 0 m/S 607 mmHg 83%
    17:00 -10°C° 0 mm 1 m/S 606 mmHg 80%
    18:00 -13°C° 0 mm 2 m/S 606 mmHg 78%
    19:00 -13°C° 0 mm 2 m/S 606 mmHg 76%
    20:00 -14°C° 0 mm 3 m/S 605 mmHg 77%
    21:00 -14°C° 0 mm 3 m/S 605 mmHg 79%
    22:00 -15°C° 0 mm 4 m/S 604 mmHg 81%
    23:00 -15°C° 0 mm 4 m/S 603 mmHg 82%

    13 Dezember, Freitag

    Zeit Temperatur Niederschläge Wind Luftdruck Luftfeuchtigkeit
    00:00 -14°C° 0 mm 5 m/S 603 mmHg 84%
    01:00 -13°C° 0 mm 5 m/S 602 mmHg 85%
    02:00 -13°C° 0.1 mm 5 m/S 601 mmHg 85%
    03:00 -14°C° 0.1 mm 6 m/S 601 mmHg 86%
    04:00 -14°C° 0.1 mm 6 m/S 600 mmHg 86%
    05:00 -14°C° 0 mm 6 m/S 599 mmHg 86%
    06:00 -14°C° 0 mm 6 m/S 598 mmHg 87%
    07:00 -14°C° 0 mm 6 m/S 598 mmHg 87%
    08:00 -14°C° 0.1 mm 6 m/S 597 mmHg 86%
    09:00 -12°C° 0.1 mm 6 m/S 597 mmHg 85%
    10:00 -12°C° 0.1 mm 5 m/S 596 mmHg 84%
    11:00 -10°C° 0.4 mm 4 m/S 596 mmHg 86%
    12:00 -8°C° 0.4 mm 3 m/S 597 mmHg 89%
    13:00 -7°C° 0.4 mm 2 m/S 597 mmHg 91%
    14:00 -7°C° 0.4 mm 2 m/S 597 mmHg 92%
    15:00 -7°C° 0.4 mm 2 m/S 596 mmHg 92%
    16:00 -7°C° 0.4 mm 2 m/S 596 mmHg 93%
    17:00 -8°C° 0 mm 2 m/S 596 mmHg 88%
    18:00 -9°C° 0 mm 2 m/S 596 mmHg 84%
    19:00 -12°C° 0 mm 3 m/S 596 mmHg 79%
    20:00 -10°C° 0 mm 2 m/S 597 mmHg 78%
    21:00 -9°C° 0 mm 2 m/S 598 mmHg 77%
    22:00 -9°C° 0 mm 2 m/S 598 mmHg 75%
    23:00 -9°C° 0 mm 2 m/S 599 mmHg 75%

    14 Dezember, Samstag

    Zeit Temperatur Niederschläge Wind Luftdruck Luftfeuchtigkeit
    00:00 -10°C° 0 mm 2 m/S 599 mmHg 75%
    01:00 -9°C° 0 mm 1 m/S 599 mmHg 75%
    02:00 -9°C° 0 mm 1 m/S 599 mmHg 74%
    03:00 -10°C° 0 mm 1 m/S 599 mmHg 73%
    04:00 -10°C° 0 mm 1 m/S 599 mmHg 71%
    05:00 -10°C° 0.1 mm 2 m/S 600 mmHg 73%
    06:00 -9°C° 0.1 mm 2 m/S 601 mmHg 74%
    07:00 -8°C° 0.1 mm 2 m/S 602 mmHg 76%
    08:00 -7°C° 0.3 mm 2 m/S 602 mmHg 80%
    09:00 -6°C° 0.3 mm 2 m/S 602 mmHg 85%
    10:00 -7°C° 0.3 mm 3 m/S 603 mmHg 89%
    11:00 -6°C° 0.7 mm 3 m/S 603 mmHg 90%
    12:00 -5°C° 0.7 mm 2 m/S 603 mmHg 91%
    13:00 -4°C° 0.7 mm 2 m/S 603 mmHg 92%
    14:00 -4°C° 1.4 mm 2 m/S 604 mmHg 93%
    15:00 -2°C° 1.4 mm 1 m/S 604 mmHg 94%
    16:00 -2°C° 1.4 mm 1 m/S 605 mmHg 96%
    17:00 -3°C° 0.3 mm 1 m/S 605 mmHg 93%
    18:00 -4°C° 0.3 mm 1 m/S 606 mmHg 90%
    19:00 -6°C° 0.3 mm 1 m/S 606 mmHg 87%
    20:00 -6°C° 0 mm 1 m/S 607 mmHg 84%
    21:00 -6°C° 0 mm 1 m/S 607 mmHg 81%
    22:00 -6°C° 0 mm 1 m/S 608 mmHg 77%
    23:00 -6°C° 0 mm 1 m/S 608 mmHg 74%
    Mehr zeigen